User: anonymous   Login
Location: Napoli
(40.8639°N, 14.2562°E)
Time: 18:04:54
(UTC+01:00)
Language:

ISS - Orbit

View from above orbital plane
View from above orbital plane
View from above satellite
View from above satellite

Ground track
Ground track

The orbit data is extracted from the following two-line orbital elements,

1 25544U 98067A   18017.47806474  .00016717  00000-0  10270-3 0  9060
2 25544  51.6409  50.0321 0003766  23.2960 336.8363 15.54293885 15077
Epoch (UTC): 17 January 2018 11:28:24
Eccentricity: 0.0003766
inclination: 51.6409°
perigee height: 401 km
apogee height: 407 km
right ascension of ascending node: 50.0321°
argument of perigee: 23.2960°
revolutions per day: 15.54293885
mean anomaly at epoch: 336.8363°
orbit number at epoch: 1507

The dashed part of the orbit path shows where the satellite is in the earth's shadow,  

DLR